Location: Bas Lanzent
(48.1360°N, 3.5871°W)
Time: 23:23:14
(UTC+00:00)

ADEOS - Pass Details

Date: 18 February 2020
Orbit: 793 x 794 km, 98.9° (Epoch: 05 April)

Event Time Altitude Azimuth Distance (km) Brightness Sun altitude
Rises 05:29:23 0° 7° (N) 3,309 6.9 -18.6°
Reaches altitude 10° 05:31:58 10° 356° (N) 2,375 6.0 -18.2°
Maximum altitude 05:36:25 29° 298° (WNW) 1,418 4.4 -17.4°
Enters shadow 05:37:07 28° 284° (WNW) 1,448 4.4 -17.3°
